SCP
0 0 0 0 0 0 0 0 0 0 0 0 0 0 0 0 0 0 0 0 0 0 0 0 0 0 0 0 0 0 0 0 0 0 0 0 0 0 0 0 0 0 0
0 0 0 0 0 0 0 0 0 0 0 0 0 0 0 0 0 0 0 0 0 0 0 0 0 0 0 0 0 0 0 0 0 0 0 0 0 0 0 0 0 0 0
0 0 0 0 0 0 0 0 0 0 0 0 0 0 0 0 0 0 0 0 0 0 0 0 0 0 0 0 0 0 0 0 0 0 0 0 0 0 0 0 0 0 0
0 0 0 0 0 0 0 0 0 0 0 0 0 0 0 0 0 0 0 0 0 0 0 0 0 0 0 0 0 0 0 0 0 0 0 0 0 0 0 0 0 0 0
0 0 0 0 0 0 0 0 0 0 0 0 0 0 0 0 0 0 0 0 0 0 0 0 0 0 0 0 0 0 0 0 0 0 0 0 0 0 0 0 0 0 0
0 0 0 0 0 0 0 0 0 0 0 0 0 0 0 0 0 0 0 0 0 0 0 0 0 0 0 0 0 0 0 0 0 0 0 0 0 0 0 0 0 0 0
0 0 0 0 0 0 0 0 0 0 0 0 0 0 0 0 0 0 0 0 0 0 0 0 0 0 0 0 0 0 0 0 0 0 0 0 0 0 0 0 0 0 0
0 0 0 0 0 0 0 0 0 0 0 0 0 0 0 0 0 0 0 0 0 0 0 0 0 0 0 0 0 0 0 0 0 0 0 0 0 0 0 0 0 0 0
0 0 0 0 0 0 0 0 0 0 0 0 0 0 0 0 0 0 0 0 0 0 0 0 0 0 0 0 0 0 0 0 0 0 0 0 0 0 0 0 0 0 0
0 0 0 0 0 0 0 0 0 0 0 0 0 0 0 0 0 0 0 0 0 0 0 0 0 0 -0 -0 0 0 0 0 0 0 0 0 0 0 0 0 0 0 0
0 0 0 0 0 0 0 0 0 0 0 0 0 0 0 0 -0 -0 0 0 0 0 0 0 -0 -0 -0 -0 0 0 0 0 0 0 0 0 0 0 0 0 0 0 0
0 0 0 0 0 0 0 0 0 0 0 0 0 0 0 -0 -0 -0 0 0 -0 0 -0 -0 -0 -0 0 0 0 0 0 0 0 0 0 0 0 0 0 0 0 0 0
0 0 0 0 0 0 0 0 0 0 0 0 0 0 0 -0 -0 -0 -0 -0 -0 -0 -0 -0 -0 -0 0 0 0 0 0 0 0 0 0 0 0 0 0 0 0 0 0
0 0 0 0 0 0 0 0 0 0 0 0 0 0 0 -0 -0 -0 -0 -0 -0 -0 -0 -0 -0 0 0 0 0 -0 0 0 0 0 0 0 0 0 0 0 0 0 0
0 0 0 0 0 0 0 0 0 0 0 0 -0 -0 -0 -0 -0 -0 -0 -0 -0 0 -0 -0 -0 0 0 0 0 0 0 0 0 0 0 0 0 0 0 -0 0 0 0
0 0 0 0 0 0 0 0 0 0 0 -0 -0 -0 -0 -0 -0 -0 -0 -0 -0 -0 -0 -0 -0 0 0 0 0 0 0 0 0 0 0 0 0 0 0 0 0 0 0
0 0 0 0 0 0 0 0 0 0 0 -0 -0 -0 -0 -0 -0 -0 -0 -0 -0 0 -0 -0 0 0 0 0 0 0 0 0 0 0 0 0 0 0 0 0 0 0 0
0 0 0 0 0 0 0 0 0 0 0 -0 -0 -0 -0 -0 -0 -0 -0 -0 -0 -0 -0 -0 0 0 0 0 0 0 0 0 0 0 0 0 0 0 0 0 0 0 0
0 0 0 0 0 0 0 0 0 0 0 0 0 0 -0 -0 -0 -0 -0 -0 -0 -0 -0 0 0 0 0 0 0 0 0 0 0 0 0 0 0 0 0 0 0 0 0
0 0 0 0 0 0 0 0 0 0 0 -0 0 0 0 0 0 -0 -0 -0 -0 -0 -0 -0 0 0 0 0 0 0 0 0 0 0 0 0 0 0 0 0 0 0 0
0 0 0 0 0 0 0 0 0 0 -0 -0 -0 -0 -0 0 0 0 0 -0 -0 -0 -0 -0 -0 -0 0 -0 -0 0 0 0 0 0 0 0 0 0 0 0 0 0 0
0 0 0 0 0 0 0 0 0 0 0 0 0 0 0 -0 -0 -0 0 0 0 0 -0 -0 -0 -0 -0 -0 -0 -0 -0 -0 -0 0 0 0 0 0 0 0 0 0 0
0 0 -0 -0 0 0 0 0 0 0 0 0 -0 -0 -0 -0 -0 -0 -0 0 0 0 0 -0 -0 -0 -0 -0 -0 -0 -0 -0 -0 0 0 0 0 0 -0 0 0 0 0
0 0 -0 -0 -0 -0 -0 -0 0 0 0 0 -0 -0 -0 -0 -0 -0 -0 -0 0 0 0 0 0 -0 -0 -0 -0 -0 -0 -0 -0 -0 -0 -0 -0 -0 -0 -0 0 0 -0
0 0 -0 -0 -0 -0 -0 -0 -0 -0 -0 -0 -0 -0 -0 -0 -0 -0 -0 -0 -0 0 0 0 0 0 -0 -0 -0 -0 -0 -0 -0 -0 -0 -0 -0 -0 -0 -0 0 0 0
0 0 0 0 -0 -0 -0 -0 -0 -0 -0 -0 -0 -0 0 0 0 -0 -0 -0 -0 -0 0 0 0 0 -0 -0 -0 -0 -0 -0 -0 -0 -0 -0 -0 -0 -0 -0 -0 0 0
Wind_Speed_500mb
45 40 32 24 16 12 11 7 7 10 14 17 20 22 25 28 35 40 43 46 47 51 53 49 51 54 50 50 50 52 55 59 72 72 64 64 63 65 62 63 63 60 59
39 32 24 18 15 10 10 13 13 17 22 26 29 32 34 36 42 45 48 47 47 48 51 51 50 48 48 50 51 54 54 59 67 78 67 64 60 61 61 64 61 53 50
31 23 21 16 6 1 10 20 27 30 32 35 36 38 41 42 43 43 43 44 45 44 45 47 48 48 51 52 52 59 59 58 63 70 73 66 64 58 54 52 52 46 44
27 21 16 11 5 5 9 19 29 34 37 38 37 37 36 38 40 38 35 44 50 47 46 46 48 48 50 52 55 56 58 66 66 72 68 67 57 50 51 50 48 42 42
21 15 13 11 13 16 21 26 30 31 33 33 31 30 30 36 31 49 53 49 44 44 43 43 43 48 56 60 60 58 57 60 63 61 65 66 64 57 55 53 54 55 53
20 13 17 19 20 22 24 24 24 23 22 24 24 29 33 30 43 46 44 43 39 39 41 43 47 50 50 57 63 67 63 63 68 70 75 75 79 78 73 67 68 69 67
14 12 15 19 20 22 22 20 19 20 21 21 25 39 30 26 33 32 35 36 38 39 43 46 49 44 50 49 55 61 70 73 77 84 90 95 98 94 94 85 83 81 78
16 16 16 16 17 18 18 19 19 19 20 22 25 33 28 28 33 34 37 37 38 37 40 43 47 50 51 57 60 71 77 78 81 84 86 91 89 89 85 82 78 73 70
20 21 23 23 19 18 18 20 21 21 21 22 21 24 26 27 33 34 36 38 40 42 45 45 45 51 53 60 67 75 82 85 79 79 78 78 72 65 63 74 80 63 56
24 24 22 21 19 19 20 22 23 22 21 20 19 20 25 25 27 31 35 42 48 49 52 46 47 50 61 67 64 65 69 69 72 72 68 61 51 49 40 38 53 68 51
20 19 17 17 18 17 17 18 21 23 25 22 19 18 16 19 22 26 33 40 50 53 51 47 47 55 61 47 38 42 47 52 50 45 41 34 32 33 17 31 32 48 63
14 14 17 18 17 18 21 23 25 28 30 24 20 15 15 20 22 25 35 41 43 41 43 42 52 58 55 37 33 39 41 42 44 52 50 46 30 22 18 17 5 20 39
15 16 19 21 20 23 25 28 29 31 31 30 30 29 26 30 28 26 37 48 43 39 48 59 66 59 39 26 30 41 40 45 45 48 45 48 40 28 14 7 8 14 22
14 18 21 23 24 27 27 34 30 34 34 33 33 35 36 40 41 40 41 46 40 52 61 64 67 54 38 37 37 36 44 41 43 38 34 42 35 36 21 8 12 15 20
16 17 19 21 24 27 29 34 32 35 36 34 36 39 42 42 42 36 42 40 47 57 59 73 69 62 60 56 51 49 47 48 42 33 35 27 30 27 25 22 15 20 16
18 18 18 21 24 22 27 28 29 27 30 27 30 33 33 34 32 28 30 31 40 54 64 77 79 82 78 71 66 67 61 61 57 56 55 36 36 26 22 25 14 11 11
19 19 17 20 22 21 24 26 25 23 24 21 24 26 27 28 28 26 24 23 40 51 69 80 85 86 89 81 78 80 76 67 62 55 62 47 31 35 32 21 16 26 28
20 21 21 22 22 22 24 26 29 28 27 25 24 22 23 23 24 25 21 40 46 52 54 63 84 88 89 83 83 82 76 71 67 70 72 54 30 23 18 23 22 16 4
17 18 25 26 24 24 23 23 28 30 32 35 35 32 29 32 28 32 40 48 48 50 51 53 59 81 90 95 91 86 82 82 80 71 72 74 52 37 30 25 18 14 8
22 25 25 20 19 22 22 25 28 30 35 38 42 41 39 47 47 44 47 51 55 49 52 50 53 60 72 81 83 84 83 84 82 79 80 77 73 65 53 38 38 36 31
18 21 29 22 22 22 22 24 24 25 25 32 31 39 37 40 44 53 52 50 54 56 57 54 53 54 61 68 76 81 78 75 75 76 72 73 74 71 63 56 51 46 36
20 21 21 21 22 25 25 23 23 26 28 29 29 34 43 35 36 40 45 50 51 54 55 55 55 56 60 64 68 73 74 73 71 74 74 64 61 62 63 59 62 54 49
25 24 23 23 25 27 25 26 26 25 27 28 29 32 35 38 38 38 37 39 46 47 51 54 54 60 62 60 62 66 67 66 67 63 63 62 59 55 51 52 51 50 57
26 26 25 25 29 27 26 27 27 32 30 30 32 33 34 35 37 38 38 38 39 43 46 51 54 55 56 59 59 57 58 57 52 46 53 51 53 52 51 50 46 45 45
25 25 25 26 25 26 27 27 27 29 30 31 32 33 34 34 36 38 40 41 40 40 42 43 47 52 53 52 52 54 50 49 48 44 44 42 43 45 49 48 47 47 43
26 25 24 24 23 24 24 26 26 28 29 31 30 31 33 35 36 39 39 42 41 40 42 41 48 48 53 53 50 49 47 47 48 43 44 42 37 38 39 41 41 41 41
Wind_Direction_500mb
132 131 134 131 122 72 73 36 313 284 273 271 274 277 279 282 282 284 286 288 287 286 286 286 286 287 286 283 281 279 279 280 283 289 288 288 286 286 284 284 287 289 291
121 126 124 122 115 86 32 356 305 300 292 287 286 287 289 291 290 290 289 286 287 286 287 287 286 287 282 281 280 277 275 278 281 287 289 288 289 289 286 283 285 287 286
118 117 115 111 111 172 296 297 304 289 291 292 292 292 291 291 291 291 290 290 289 289 290 290 290 287 282 278 276 276 282 284 283 283 286 286 285 286 285 282 284 283 288
108 108 102 91 55 5 309 280 281 288 291 296 300 303 302 301 301 301 293 293 294 294 291 288 287 285 283 285 287 288 285 286 286 285 285 290 290 290 284 283 281 283 287
94 86 63 16 356 323 308 303 302 304 304 306 308 309 311 309 305 285 296 298 298 296 294 291 289 283 278 284 287 284 283 284 284 284 284 286 287 286 281 283 276 278 282
58 29 358 345 336 328 326 324 320 314 310 318 320 322 316 311 285 297 302 304 302 299 298 296 294 297 300 294 294 296 295 285 279 278 279 278 278 278 279 276 271 271 276
49 23 2 356 346 337 335 332 325 324 326 327 329 326 327 322 308 312 309 308 306 302 300 299 299 298 293 297 298 290 283 281 278 279 279 278 280 280 277 275 272 273 277
36 18 359 347 341 342 344 339 336 336 330 324 326 331 330 329 319 318 317 318 309 306 301 300 302 304 303 304 299 294 293 292 290 289 288 289 286 285 281 280 279 277 279
39 27 24 26 21 16 4 353 349 340 334 326 324 328 323 328 328 335 335 336 336 335 330 321 312 312 316 312 302 301 303 301 302 300 299 297 293 288 281 271 267 263 260
44 38 38 31 21 16 8 2 1 354 338 329 329 332 324 341 343 345 341 342 340 339 339 346 344 329 319 313 307 313 314 316 314 312 310 307 305 294 290 258 251 244 241
47 42 33 29 29 14 19 15 19 14 10 11 358 343 342 348 1 350 347 347 344 347 351 346 341 340 339 337 332 346 349 348 354 351 344 334 325 320 300 292 257 236 228
55 46 35 31 35 24 25 20 11 11 7 17 22 17 9 19 8 4 9 1 354 0 346 354 354 348 344 340 358 356 345 346 355 1 355 350 332 328 300 310 241 215 218
52 41 38 31 30 26 23 20 16 18 24 31 30 33 34 27 18 14 12 13 3 8 12 14 6 355 349 360 6 0 5 8 9 17 3 4 3 5 343 350 121 155 192
53 53 38 34 37 37 29 21 23 21 26 28 29 28 25 24 17 11 17 11 11 23 18 13 11 10 23 20 18 8 9 13 8 13 6 3 9 20 21 42 134 153 154
57 56 41 40 34 35 25 24 26 14 18 21 19 19 17 18 18 12 9 5 23 30 23 23 22 28 34 32 31 24 25 23 21 10 3 1 13 33 37 54 100 131 139
53 54 49 45 49 35 33 23 18 17 16 16 10 18 17 12 11 7 7 9 34 35 28 29 29 31 32 30 30 33 30 28 31 32 23 21 39 28 54 80 112 107 112
49 52 53 44 44 36 38 35 33 23 25 18 12 12 11 14 18 21 11 19 38 38 38 35 33 32 31 32 37 37 35 35 32 26 32 35 56 48 64 55 62 102 108
36 46 53 53 52 41 42 41 39 40 44 45 34 24 18 23 26 30 23 43 35 38 32 24 29 29 31 34 38 37 37 37 36 35 33 31 46 73 85 98 107 109 93
54 43 43 49 49 52 40 47 47 50 53 57 58 54 44 43 37 34 33 39 31 30 28 21 18 24 27 33 36 39 40 41 43 42 43 37 43 55 64 70 77 89 91
36 60 63 49 43 46 51 45 45 43 43 43 38 38 39 42 39 35 35 34 33 31 26 26 18 19 29 32 32 33 39 39 39 42 47 42 36 38 50 55 60 72 73
55 44 58 52 52 51 47 41 37 33 33 32 26 27 39 33 32 39 38 34 29 28 29 31 16 16 20 28 31 31 35 39 38 38 45 44 47 39 39 45 52 56 62
60 58 56 56 54 54 52 48 39 32 30 29 27 19 32 35 29 28 30 35 33 28 28 29 25 20 23 24 25 28 29 31 38 39 40 41 42 46 37 40 45 48 50
65 63 60 57 51 52 49 44 43 42 35 32 31 27 26 25 29 26 23 18 24 29 26 27 27 24 24 27 26 24 23 25 31 35 40 40 41 43 48 41 36 38 47
63 63 62 54 60 51 54 47 42 36 42 40 36 32 30 28 24 24 24 21 20 16 19 21 24 24 20 20 20 23 20 17 23 29 36 35 44 46 45 47 43 48 44
66 63 62 61 57 53 48 48 43 42 41 39 37 33 30 30 27 24 23 22 20 18 16 18 15 16 20 19 16 17 15 15 16 13 31 26 31 38 43 44 47 46 50
66 64 60 58 56 55 49 44 39 38 37 34 34 29 26 25 24 21 20 18 18 16 16 15 14 16 16 17 16 15 13 12 10 11 24 19 23 29 33 35 37 44 44
Wind_Speed_850mb
45 40 32 24 16 12 11 7 7 10 14 17 20 22 25 28 35 40 43 46 47 51 53 49 51 54 50 50 50 52 55 59 72 72 64 64 63 65 62 63 63 60 59
39 32 24 18 15 10 10 13 13 17 22 26 29 32 34 36 42 45 48 47 47 48 51 51 50 48 48 50 51 54 54 59 67 78 67 64 60 61 61 64 61 53 50
31 23 21 16 6 1 10 20 27 30 32 35 36 38 41 42 43 43 43 44 45 44 45 47 48 48 51 52 52 59 59 58 63 70 73 66 64 58 54 52 52 46 44
27 21 16 11 5 5 9 19 29 34 37 38 37 37 36 38 40 38 35 44 50 47 46 46 48 48 50 52 55 56 58 66 66 72 68 67 57 50 51 50 48 42 42
21 15 13 11 13 16 21 26 30 31 33 33 31 30 30 36 31 49 53 49 44 44 43 43 43 48 56 60 60 58 57 60 63 61 65 66 64 57 55 53 54 55 53
20 13 17 19 20 22 24 24 24 23 22 24 24 29 33 30 43 46 44 43 39 39 41 43 47 50 50 57 63 67 63 63 68 70 75 75 79 78 73 67 68 69 67
14 12 15 19 20 22 22 20 19 20 21 21 25 39 30 26 33 32 35 36 38 39 43 46 49 44 50 49 55 61 70 73 77 84 90 95 98 94 94 85 83 81 78
16 16 16 16 17 18 18 19 19 19 20 22 25 33 28 28 33 34 37 37 38 37 40 43 47 50 51 57 60 71 77 78 81 84 86 91 89 89 85 82 78 73 70
20 21 23 23 19 18 18 20 21 21 21 22 21 24 26 27 33 34 36 38 40 42 45 45 45 51 53 60 67 75 82 85 79 79 78 78 72 65 63 74 80 63 56
24 24 22 21 19 19 20 22 23 22 21 20 19 20 25 25 27 31 35 42 48 49 52 46 47 50 61 67 64 65 69 69 72 72 68 61 51 49 40 38 53 68 51
20 19 17 17 18 17 17 18 21 23 25 22 19 18 16 19 22 26 33 40 50 53 51 47 47 55 61 47 38 42 47 52 50 45 41 34 32 33 17 31 32 48 63
14 14 17 18 17 18 21 23 25 28 30 24 20 15 15 20 22 25 35 41 43 41 43 42 52 58 55 37 33 39 41 42 44 52 50 46 30 22 18 17 5 20 39
15 16 19 21 20 23 25 28 29 31 31 30 30 29 26 30 28 26 37 48 43 39 48 59 66 59 39 26 30 41 40 45 45 48 45 48 40 28 14 7 8 14 22
14 18 21 23 24 27 27 34 30 34 34 33 33 35 36 40 41 40 41 46 40 52 61 64 67 54 38 37 37 36 44 41 43 38 34 42 35 36 21 8 12 15 20
16 17 19 21 24 27 29 34 32 35 36 34 36 39 42 42 42 36 42 40 47 57 59 73 69 62 60 56 51 49 47 48 42 33 35 27 30 27 25 22 15 20 16
18 18 18 21 24 22 27 28 29 27 30 27 30 33 33 34 32 28 30 31 40 54 64 77 79 82 78 71 66 67 61 61 57 56 55 36 36 26 22 25 14 11 11
19 19 17 20 22 21 24 26 25 23 24 21 24 26 27 28 28 26 24 23 40 51 69 80 85 86 89 81 78 80 76 67 62 55 62 47 31 35 32 21 16 26 28
20 21 21 22 22 22 24 26 29 28 27 25 24 22 23 23 24 25 21 40 46 52 54 63 84 88 89 83 83 82 76 71 67 70 72 54 30 23 18 23 22 16 4
17 18 25 26 24 24 23 23 28 30 32 35 35 32 29 32 28 32 40 48 48 50 51 53 59 81 90 95 91 86 82 82 80 71 72 74 52 37 30 25 18 14 8
22 25 25 20 19 22 22 25 28 30 35 38 42 41 39 47 47 44 47 51 55 49 52 50 53 60 72 81 83 84 83 84 82 79 80 77 73 65 53 38 38 36 31
18 21 29 22 22 22 22 24 24 25 25 32 31 39 37 40 44 53 52 50 54 56 57 54 53 54 61 68 76 81 78 75 75 76 72 73 74 71 63 56 51 46 36
20 21 21 21 22 25 25 23 23 26 28 29 29 34 43 35 36 40 45 50 51 54 55 55 55 56 60 64 68 73 74 73 71 74 74 64 61 62 63 59 62 54 49
25 24 23 23 25 27 25 26 26 25 27 28 29 32 35 38 38 38 37 39 46 47 51 54 54 60 62 60 62 66 67 66 67 63 63 62 59 55 51 52 51 50 57
26 26 25 25 29 27 26 27 27 32 30 30 32 33 34 35 37 38 38 38 39 43 46 51 54 55 56 59 59 57 58 57 52 46 53 51 53 52 51 50 46 45 45
25 25 25 26 25 26 27 27 27 29 30 31 32 33 34 34 36 38 40 41 40 40 42 43 47 52 53 52 52 54 50 49 48 44 44 42 43 45 49 48 47 47 43
26 25 24 24 23 24 24 26 26 28 29 31 30 31 33 35 36 39 39 42 41 40 42 41 48 48 53 53 50 49 47 47 48 43 44 42 37 38 39 41 41 41 41
Wind_Direction_850mb
132 131 134 131 122 72 73 36 313 284 273 271 274 277 279 282 282 284 286 288 287 286 286 286 286 287 286 283 281 279 279 280 283 289 288 288 286 286 284 284 287 289 291
121 126 124 122 115 86 32 356 305 300 292 287 286 287 289 291 290 290 289 286 287 286 287 287 286 287 282 281 280 277 275 278 281 287 289 288 289 289 286 283 285 287 286
118 117 115 111 111 172 296 297 304 289 291 292 292 292 291 291 291 291 290 290 289 289 290 290 290 287 282 278 276 276 282 284 283 283 286 286 285 286 285 282 284 283 288
108 108 102 91 55 5 309 280 281 288 291 296 300 303 302 301 301 301 293 293 294 294 291 288 287 285 283 285 287 288 285 286 286 285 285 290 290 290 284 283 281 283 287
94 86 63 16 356 323 308 303 302 304 304 306 308 309 311 309 305 285 296 298 298 296 294 291 289 283 278 284 287 284 283 284 284 284 284 286 287 286 281 283 276 278 282
58 29 358 345 336 328 326 324 320 314 310 318 320 322 316 311 285 297 302 304 302 299 298 296 294 297 300 294 294 296 295 285 279 278 279 278 278 278 279 276 271 271 276
49 23 2 356 346 337 335 332 325 324 326 327 329 326 327 322 308 312 309 308 306 302 300 299 299 298 293 297 298 290 283 281 278 279 279 278 280 280 277 275 272 273 277
36 18 359 347 341 342 344 339 336 336 330 324 326 331 330 329 319 318 317 318 309 306 301 300 302 304 303 304 299 294 293 292 290 289 288 289 286 285 281 280 279 277 279
39 27 24 26 21 16 4 353 349 340 334 326 324 328 323 328 328 335 335 336 336 335 330 321 312 312 316 312 302 301 303 301 302 300 299 297 293 288 281 271 267 263 260
44 38 38 31 21 16 8 2 1 354 338 329 329 332 324 341 343 345 341 342 340 339 339 346 344 329 319 313 307 313 314 316 314 312 310 307 305 294 290 258 251 244 241
47 42 33 29 29 14 19 15 19 14 10 11 358 343 342 348 1 350 347 347 344 347 351 346 341 340 339 337 332 346 349 348 354 351 344 334 325 320 300 292 257 236 228
55 46 35 31 35 24 25 20 11 11 7 17 22 17 9 19 8 4 9 1 354 0 346 354 354 348 344 340 358 356 345 346 355 1 355 350 332 328 300 310 241 215 218
52 41 38 31 30 26 23 20 16 18 24 31 30 33 34 27 18 14 12 13 3 8 12 14 6 355 349 360 6 0 5 8 9 17 3 4 3 5 343 350 121 155 192
53 53 38 34 37 37 29 21 23 21 26 28 29 28 25 24 17 11 17 11 11 23 18 13 11 10 23 20 18 8 9 13 8 13 6 3 9 20 21 42 134 153 154
57 56 41 40 34 35 25 24 26 14 18 21 19 19 17 18 18 12 9 5 23 30 23 23 22 28 34 32 31 24 25 23 21 10 3 1 13 33 37 54 100 131 139
53 54 49 45 49 35 33 23 18 17 16 16 10 18 17 12 11 7 7 9 34 35 28 29 29 31 32 30 30 33 30 28 31 32 23 21 39 28 54 80 112 107 112
49 52 53 44 44 36 38 35 33 23 25 18 12 12 11 14 18 21 11 19 38 38 38 35 33 32 31 32 37 37 35 35 32 26 32 35 56 48 64 55 62 102 108
36 46 53 53 52 41 42 41 39 40 44 45 34 24 18 23 26 30 23 43 35 38 32 24 29 29 31 34 38 37 37 37 36 35 33 31 46 73 85 98 107 109 93
54 43 43 49 49 52 40 47 47 50 53 57 58 54 44 43 37 34 33 39 31 30 28 21 18 24 27 33 36 39 40 41 43 42 43 37 43 55 64 70 77 89 91
36 60 63 49 43 46 51 45 45 43 43 43 38 38 39 42 39 35 35 34 33 31 26 26 18 19 29 32 32 33 39 39 39 42 47 42 36 38 50 55 60 72 73
55 44 58 52 52 51 47 41 37 33 33 32 26 27 39 33 32 39 38 34 29 28 29 31 16 16 20 28 31 31 35 39 38 38 45 44 47 39 39 45 52 56 62
60 58 56 56 54 54 52 48 39 32 30 29 27 19 32 35 29 28 30 35 33 28 28 29 25 20 23 24 25 28 29 31 38 39 40 41 42 46 37 40 45 48 50
65 63 60 57 51 52 49 44 43 42 35 32 31 27 26 25 29 26 23 18 24 29 26 27 27 24 24 27 26 24 23 25 31 35 40 40 41 43 48 41 36 38 47
63 63 62 54 60 51 54 47 42 36 42 40 36 32 30 28 24 24 24 21 20 16 19 21 24 24 20 20 20 23 20 17 23 29 36 35 44 46 45 47 43 48 44
66 63 62 61 57 53 48 48 43 42 41 39 37 33 30 30 27 24 23 22 20 18 16 18 15 16 20 19 16 17 15 15 16 13 31 26 31 38 43 44 47 46 50
66 64 60 58 56 55 49 44 39 38 37 34 34 29 26 25 24 21 20 18 18 16 16 15 14 16 16 17 16 15 13 12 10 11 24 19 23 29 33 35 37 44 44